Weather History for Natchitoches, LA

Change the Weather History Date:

Friday, November 9, 2012

  Actual Average Record
Temperature  
Mean Temperature 58 °F -  
Max Temperature 78 °F 70 °F 87 °F (1989)
Min Temperature 39 °F 47 °F 24 °F (1991)
Degree Days  
Heating Degree Days 6    
Growing Degree Days 8 (Base 50)    
Moisture  
Dew Point 47 °F    
Average Humidity 70    
Maximum Humidity 100    
Minimum Humidity 32    
Precipitation  
Precipitation 0.00 in - - ()
Sea Level Pressure  
Sea Level Pressure 30.15 in    
Wind  
Wind Speed 4 mph (SSE)    
Max Wind Speed 14 mph    
Max Gust Speed 16 mph    
Visibility 10 miles    
Events      
Averages and records for this station are not official NWS values.
T = Trace of Precipitation, MM = Missing Value Source: NWS Daily Summary

Daily Weather History Graph

Daily Weather History Graph

Search for Another Location

Airport:

Trip Planner

Search our weather history database for the weather conditions in past years. The results will help you decide how hot, cold, wet, or windy it might be!

Date:

Astronomy

Nov. 09, 2012 Rise Set
Actual Time 6:35 AM CST 5:16 PM CST
Civil Twilight 6:10 AM CST 5:41 PM CST
Nautical Twilight 5:41 AM CST 6:11 PM CST
Astronomical Twilight 5:12 AM CST 6:39 PM CST
Moon 1:51 AM CST (11/9) 2:15 PM CST (11/9)
Length of Visible Light 11h 31m
Length of Day
10h 40m
Waning Crescent, 23% of the Moon is Illuminated
Nov 9
Waning Crescent
Nov 13
New
Nov 20
First Quarter
Nov 28
Full
Dec 6
Last Quarter

Hourly Weather History & Observations

Time (CST) Temp. Dew Point Humidity Pressure Visibility Wind Dir Wind Speed Gust Speed Precip Events Conditions
12:15 AM 45.7 °F 43.0 °F 90% 30.16 in 10.0 mi Calm Calm - N/A   Clear
12:35 AM 45.5 °F 42.8 °F 90% 30.16 in 10.0 mi Calm Calm - N/A   Clear
12:55 AM 45.3 °F 42.8 °F 91% 30.16 in 10.0 mi Calm Calm - N/A   Clear
1:15 AM 43.9 °F 42.6 °F 95% 30.16 in 10.0 mi Calm Calm - N/A   Clear
1:35 AM 43.3 °F 42.8 °F 98% 30.16 in 10.0 mi Calm Calm - N/A   Clear
1:55 AM 43.9 °F 42.8 °F 96% 30.15 in 10.0 mi Calm Calm - N/A   Clear
2:15 AM 44.1 °F 42.3 °F 93% 30.15 in 10.0 mi Calm Calm - N/A   Clear
2:35 AM 42.3 °F 41.2 °F 96% 30.15 in 10.0 mi Calm Calm - N/A   Clear
2:55 AM 42.8 °F 41.9 °F 97% 30.15 in 10.0 mi Calm Calm - N/A   Clear
3:35 AM 42.3 °F 41.4 °F 97% 30.15 in 10.0 mi Calm Calm - N/A   Clear
3:55 AM 41.9 °F 41.2 °F 97% 30.16 in 10.0 mi Calm Calm - N/A   Clear
4:15 AM 40.3 °F 39.9 °F 99% 30.16 in 10.0 mi Calm Calm - N/A   Clear
4:35 AM 41.0 °F 40.5 °F 98% 30.16 in 10.0 mi Calm Calm - N/A   Clear
4:55 AM 40.1 °F 39.9 °F 99% 30.17 in 10.0 mi Calm Calm - N/A   Clear
5:15 AM 40.1 °F 40.1 °F 100% 30.18 in 10.0 mi Calm Calm - N/A   Clear
5:55 AM 39.7 °F 39.7 °F 100% 30.19 in 7.0 mi Calm Calm - N/A   Clear
6:15 AM 39.2 °F 39.2 °F 100% 30.20 in 10.0 mi Calm Calm - N/A   Clear
6:35 AM 39.7 °F 39.7 °F 100% 30.20 in 10.0 mi Calm Calm - N/A   Clear
6:55 AM 39.4 °F 39.2 °F 99% 30.20 in 7.0 mi Calm Calm - N/A   Clear
7:15 AM 41.5 °F 41.5 °F 100% 30.20 in 10.0 mi Calm Calm - N/A   Clear
7:35 AM 45.7 °F 45.0 °F 97% 30.21 in 10.0 mi Calm Calm - N/A   Clear
7:55 AM 47.5 °F 46.0 °F 95% 30.21 in 10.0 mi SE 4.6 mph - N/A   Clear
8:15 AM 52.2 °F 48.2 °F 86% 30.21 in 10.0 mi SSE 8.1 mph - N/A   Clear
8:55 AM 58.6 °F 48.4 °F 69% 30.21 in 10.0 mi SSE 10.4 mph - N/A   Clear
9:15 AM 58.5 °F 48.6 °F 70% 30.21 in 10.0 mi SE 8.1 mph - N/A   Clear
9:35 AM 62.1 °F 49.1 °F 62% 30.21 in 10.0 mi SE 10.4 mph - N/A   Clear
9:55 AM 64.4 °F 48.6 °F 56% 30.21 in 10.0 mi SE 9.2 mph - N/A   Clear
10:15 AM 66.2 °F 48.9 °F 54% 30.21 in 10.0 mi SE 9.2 mph - N/A   Clear
10:35 AM 68.2 °F 50.0 °F 52% 30.21 in 10.0 mi SE 5.8 mph - N/A   Clear
10:55 AM 69.8 °F 50.0 °F 49% 30.19 in 10.0 mi SE 5.8 mph - N/A   Clear
11:15 AM 71.4 °F 49.3 °F 45% 30.19 in 10.0 mi SSE 8.1 mph - N/A   Clear
11:35 AM 73.2 °F 48.6 °F 42% 30.18 in 10.0 mi SSE 10.4 mph - N/A   Clear
11:55 AM 73.4 °F 45.7 °F 37% 30.16 in 10.0 mi SSE 11.5 mph - N/A   Clear
12:15 PM 74.7 °F 46.2 °F 36% 30.15 in 10.0 mi SSE 8.1 mph - N/A   Clear
12:35 PM 75.7 °F 46.8 °F 36% 30.14 in 10.0 mi South 6.9 mph - N/A   Clear
12:55 PM 76.5 °F 47.3 °F 36% 30.13 in 10.0 mi SSE 10.4 mph - N/A   Clear
1:15 PM 77.0 °F 47.3 °F 35% 30.12 in 10.0 mi SSE 9.2 mph - N/A   Clear
1:35 PM 78.4 °F 48.2 °F 34% 30.11 in 10.0 mi South 9.2 mph - N/A   Clear
1:55 PM 78.1 °F 48.4 °F 35% 30.10 in 10.0 mi SSE 11.5 mph - N/A   Clear
2:15 PM 77.9 °F 48.0 °F 35% 30.10 in 10.0 mi South 11.5 mph - N/A   Clear
2:35 PM 78.4 °F 46.9 °F 33% 30.09 in 10.0 mi SE 11.5 mph 16.1 mph N/A   Clear
2:55 PM 78.3 °F 46.4 °F 32% 30.09 in 10.0 mi SSE 11.5 mph - N/A   Clear
3:15 PM 78.3 °F 46.2 °F 32% 30.09 in 10.0 mi South 9.2 mph - N/A   Clear
3:35 PM 77.9 °F 46.4 °F 33% 30.09 in 10.0 mi SE 11.5 mph - N/A   Clear
3:55 PM 77.0 °F 47.3 °F 35% 30.09 in 10.0 mi SSE 13.8 mph - N/A   Clear
4:15 PM 76.1 °F 47.8 °F 37% 30.09 in 10.0 mi SSE 9.2 mph - N/A   Clear
4:35 PM 74.8 °F 48.4 °F 39% 30.09 in 10.0 mi SSE 11.5 mph - N/A   Clear
4:55 PM 72.5 °F 49.1 °F 44% 30.09 in 10.0 mi SSE 6.9 mph - N/A   Clear
5:15 PM 70.0 °F 49.3 °F 48% 30.09 in 10.0 mi SSE 10.4 mph - N/A   Clear
5:35 PM 66.4 °F 49.1 °F 54% 30.10 in 10.0 mi SSE 6.9 mph - N/A   Clear
5:55 PM 64.8 °F 48.9 °F 56% 30.10 in 10.0 mi SSE 5.8 mph - N/A   Clear
6:15 PM 63.9 °F 48.9 °F 58% 30.11 in 10.0 mi SSE 5.8 mph - N/A   Clear
6:35 PM 63.9 °F 49.1 °F 59% 30.11 in 10.0 mi SSE 5.8 mph - N/A   Clear
6:55 PM 63.5 °F 49.3 °F 60% 30.12 in 10.0 mi SSE 4.6 mph - N/A   Clear
7:15 PM 62.2 °F 49.3 °F 63% 30.12 in 10.0 mi SSE 5.8 mph - N/A   Clear
7:35 PM 61.2 °F 50.0 °F 67% 30.12 in 10.0 mi SSE 5.8 mph - N/A   Clear
7:55 PM 60.8 °F 50.7 °F 69% 30.13 in 10.0 mi South 5.8 mph - N/A   Clear
8:15 PM 59.9 °F 50.7 °F 72% 30.13 in 10.0 mi SSE 6.9 mph - N/A   Clear
8:35 PM 59.4 °F 51.3 °F 75% 30.14 in 10.0 mi South 6.9 mph - N/A   Clear
8:55 PM 59.0 °F 52.5 °F 79% 30.14 in 10.0 mi South 8.1 mph - N/A   Clear
9:15 PM 60.4 °F 54.7 °F 81% 30.14 in 10.0 mi South 6.9 mph - N/A   Clear
9:35 PM 60.1 °F 54.7 °F 82% 30.14 in 10.0 mi SSE 6.9 mph - N/A   Clear
9:55 PM 59.0 °F 55.0 °F 87% 30.14 in 10.0 mi SSE 6.9 mph - N/A   Clear
10:15 PM 58.5 °F 55.2 °F 89% 30.15 in 10.0 mi South 6.9 mph - N/A   Clear
10:35 PM 59.0 °F 55.4 °F 88% 30.14 in 10.0 mi SSE 5.8 mph - N/A   Clear
10:55 PM 58.1 °F 54.9 °F 89% 30.14 in 10.0 mi SSE 6.9 mph - N/A   Clear
11:15 PM 57.6 °F 54.9 °F 91% 30.14 in 10.0 mi SSE 6.9 mph - N/A   Clear
11:35 PM 57.9 °F 55.2 °F 91% 30.14 in 10.0 mi SSE 6.9 mph - N/A   Clear
11:55 PM 57.6 °F 54.5 °F 90% 30.14 in 10.0 mi SSE 5.8 mph - N/A   Clear